IRIDIUM 13 [P]

Last updated on Mon Apr 30 2018 00:19:39 GMT+0000 (Coordinated Universal Time)

1 24840U 97030E 18119.15646152 .20151174 -20482-5 21976-3 0 9998 2 24840 86.3773 214.1259 0044385 225.9580 134.0742 16.45762799 92809

Satellite not in orbit